Location: Br�znic
(45.9167°N, 22.6500°E)
Time: 12:32:11
(UTC+00:00)

Cosmos 2219 Rocket - Pass Details

Date: 03 March 2021
Orbit: 827 x 848 km, 71.0° (Epoch: 11 April)

Event Time Altitude Azimuth Distance (km) Brightness Sun altitude
Rises 19:25:07 0° 226° (SW) 3,356 5.5 -32.3°
Reaches altitude 10° 19:27:40 10° 233° (SW) 2,429 4.8 -32.7°
Maximum altitude 19:32:56 43° 304° (NW) 1,157 3.2 -33.5°
Drops below altitude 10° 19:38:17 10° 16° (NNE) 2,454 4.7 -34.3°
Sets 19:40:52 0° 23° (NNE) 3,395 5.4 -34.7°
